Weather History for Jonesboro, AR

Change the Weather History Date:

Friday, May 9, 2014

  Actual Average Record
Temperature  
Mean Temperature 69 °F 67 °F  
Max Temperature 75 °F 78 °F 97 °F (1905)
Min Temperature 63 °F 56 °F 38 °F (1980)
Degree Days  
Heating Degree Days 0 2  
Month to date heating degree days 20 20  
Since 1 July heating degree days 4106 3635  
Cooling Degree Days 4 4  
Month to date cooling degree days 54 27  
Year to date cooling degree days 75 74  
Growing Degree Days 18 (Base 50)    
Moisture  
Dew Point 64 °F    
Average Humidity 83    
Maximum Humidity 93    
Minimum Humidity 73    
Precipitation  
Precipitation 1.14 in 0.17 in 2.23 in (2009)
Month to date precipitation 1.32 1.76  
Year to date precipitation 18.02 18.43  
Snow  
Snow 0.00 in 0.00 in - ()
Month to date snowfall 0.0 0.0  
Since 1 July snowfall 5.2 4.8  
Snow Depth 0.00 in    
Sea Level Pressure  
Sea Level Pressure 29.90 in    
Wind  
Wind Speed 11 mph (SW)    
Max Wind Speed 25 mph    
Max Gust Speed 31 mph    
Visibility 9 miles    
Events Rain , Thunderstorm    
T = Trace of Precipitation, MM = Missing Value Source: NWS Daily Summary

Daily Weather History Graph

Daily Weather History Graph

Search for Another Location

Airport:

Trip Planner

Search our weather history database for the weather conditions in past years. The results will help you decide how hot, cold, wet, or windy it might be!

Date:

Astronomy

May. 09, 2014 Rise Set
Actual Time 6:02 AM CDT 7:56 PM CDT
Civil Twilight 5:34 AM CDT 8:24 PM CDT
Nautical Twilight 5:00 AM CDT 8:58 PM CDT
Astronomical Twilight 4:24 AM CDT 9:34 PM CDT
Moon 3:03 PM CDT (5/9) 2:54 AM CDT (5/9)
Length of Visible Light 14h 50m
Length of Day
13h 53m
Waxing Gibbous, 74% of the Moon is Illuminated
May 9
Waxing Gibbous
May 14
Full
May 21
Last Quarter
May 28
New
Jun 5
First Quarter

Hourly Weather History & Observations

Time (CDT) Temp. Dew Point Humidity Pressure Visibility Wind Dir Wind Speed Gust Speed Precip Events Conditions
12:53 AM 70.0 °F 64.0 °F 81% 29.87 in 10.0 mi SSE 5.8 mph - 0.02 in Rain Light Rain
1:53 AM 64.0 °F 60.1 °F 87% 29.88 in 6.0 mi West 13.8 mph 24.2 mph 0.18 in Rain Light Rain
2:53 AM 63.0 °F 61.0 °F 93% 29.88 in 4.0 mi SW 8.1 mph - 0.30 in Rain Heavy Rain
3:53 AM 62.6 °F 60.8 °F 94% 29.85 in 10.0 mi South 9.2 mph - N/A Rain Light Rain
4:53 AM 64.0 °F 61.0 °F 90% 29.87 in 10.0 mi SW 9.2 mph - 0.01 in Rain Light Rain
5:53 AM 63.0 °F 61.0 °F 93% 29.90 in 10.0 mi WSW 9.2 mph - 0.00 in   Clear
6:09 AM 62.6 °F 60.8 °F 94% 29.91 in 10.0 mi SW 9.2 mph - N/A   Partly Cloudy
6:53 AM 62.6 °F 60.8 °F 94% 29.93 in 10.0 mi South 4.6 mph - N/A   Partly Cloudy
7:05 AM 62.6 °F 60.8 °F 94% 29.93 in 10.0 mi SSW 5.8 mph - N/A   Mostly Cloudy
7:53 AM 64.9 °F 62.1 °F 90% 29.92 in 10.0 mi SSW 12.7 mph - N/A   Overcast
8:20 AM 64.4 °F 60.8 °F 88% 29.94 in 10.0 mi SSW 12.7 mph - N/A   Mostly Cloudy
8:53 AM 66.0 °F 62.1 °F 87% 29.94 in 10.0 mi SW 15.0 mph - N/A   Mostly Cloudy
9:53 AM 68.0 °F 62.1 °F 81% 29.94 in 10.0 mi SW 17.3 mph 26.5 mph N/A   Mostly Cloudy
10:00 AM 68.0 °F 62.6 °F 83% 29.95 in 10.0 mi SW 17.3 mph - N/A   Scattered Clouds
10:14 AM 68.0 °F 62.6 °F 83% 29.95 in 10.0 mi SW 18.4 mph 25.3 mph N/A   Mostly Cloudy
10:24 AM 69.8 °F 62.6 °F 78% 29.95 in 10.0 mi WSW 17.3 mph - N/A   Scattered Clouds
10:53 AM 70.0 °F 64.0 °F 81% 29.95 in 10.0 mi SW 11.5 mph - N/A   Mostly Cloudy
11:25 AM 71.6 °F 64.4 °F 78% 29.95 in 10.0 mi SW 16.1 mph - N/A   Overcast
11:49 AM 73.4 °F 64.4 °F 73% 29.94 in 10.0 mi SW 16.1 mph - N/A   Mostly Cloudy
11:53 AM 73.0 °F 64.0 °F 73% 29.94 in 10.0 mi SW 18.4 mph - N/A   Mostly Cloudy
12:31 PM 71.6 °F 64.4 °F 78% 29.94 in 10.0 mi SW 11.5 mph - 0.00 in   Overcast
12:53 PM 73.0 °F 64.0 °F 73% 29.94 in 10.0 mi SSW 12.7 mph - 0.00 in   Overcast
1:53 PM 73.0 °F 64.9 °F 76% 29.91 in 10.0 mi SSW 17.3 mph 23.0 mph N/A   Overcast
2:53 PM 73.0 °F 66.0 °F 79% 29.91 in 10.0 mi SSW 11.5 mph - N/A   Overcast
3:53 PM 73.9 °F 66.9 °F 79% 29.88 in 10.0 mi SSW 13.8 mph - N/A   Overcast
4:53 PM 73.9 °F 66.0 °F 76% 29.86 in 10.0 mi SSW 16.1 mph 24.2 mph N/A   Overcast
5:25 PM 73.4 °F 66.2 °F 78% 29.87 in 10.0 mi SSW 12.7 mph - 0.00 in Rain , Thunderstorm Light Rain
5:48 PM 71.6 °F 68.0 °F 88% 29.87 in 1.8 mi South 24.2 mph 29.9 mph 0.18 in Rain , Thunderstorm Heavy Thunderstorms and Rain
5:53 PM 68.0 °F 64.0 °F 87% 29.87 in 0.8 mi WSW 16.1 mph 31.1 mph 0.34 in Rain , Thunderstorm Heavy Thunderstorms and Rain
6:01 PM 68.0 °F 60.8 °F 78% 29.85 in 2.5 mi North 12.7 mph 21.9 mph 0.04 in Rain , Thunderstorm Light Thunderstorms and Rain
6:08 PM 66.2 °F 62.6 °F 88% 29.82 in 5.0 mi NE 21.9 mph 27.6 mph 0.07 in Rain , Thunderstorm Thunderstorms and Rain
6:16 PM 68.0 °F 62.6 °F 83% 29.86 in 2.5 mi SW 20.7 mph 29.9 mph 0.20 in Rain , Thunderstorm Heavy Thunderstorms and Rain
6:21 PM 69.8 °F 66.2 °F 88% 29.88 in 2.0 mi West 19.6 mph 29.9 mph 0.23 in Rain , Thunderstorm Thunderstorms and Rain
6:31 PM 69.8 °F 64.4 °F 83% 29.87 in 10.0 mi West 8.1 mph 26.5 mph 0.23 in Rain , Thunderstorm Light Rain
6:53 PM 71.1 °F 66.9 °F 87% 29.87 in 10.0 mi SW 5.8 mph - 0.23 in   Overcast
7:42 PM 71.6 °F 68.0 °F 88% 29.88 in 10.0 mi South 9.2 mph - 0.00 in   Overcast
7:53 PM 71.1 °F 68.0 °F 90% 29.88 in 10.0 mi South 6.9 mph - 0.00 in Rain Light Rain
8:02 PM 71.6 °F 68.0 °F 88% 29.88 in 10.0 mi South 5.8 mph - N/A   Overcast
8:53 PM 72.0 °F 68.0 °F 87% 29.88 in 10.0 mi SSW 6.9 mph - 0.00 in   Overcast
9:53 PM 71.1 °F 66.9 °F 87% 29.91 in 10.0 mi SSW 9.2 mph - N/A   Overcast
10:53 PM 70.0 °F 66.0 °F 87% 29.91 in 10.0 mi South 6.9 mph - N/A   Overcast
11:53 PM 70.0 °F 66.0 °F 87% 29.91 in 10.0 mi South 8.1 mph - N/A   Overcast